Terminal Aerodrome Forecast
Issued by NWS

Home | Current Version | Previous Version | Text Only | Print | Product List | Glossary On
Versions: 1 2 3 4 5 6 7 8 9 10 11 12 13 14 15 16
000
FTUS44 KBMX 290523
TAFMGM
TAF
KMGM 290523Z 2906/3006 15004KT P6SM SCT040 SCT250
     FM291000 15008KT 6SM BR OVC010
     FM291400 15012G22KT P6SM BKN025
     FM291600 15013G22KT P6SM SCT050 SCT250
     FM300100 15009KT P6SM SCT060 SCT250=

USA.gov is the U.S. government's official web portal to all federal, state and local government web resources and services.